Date String (YYYY-MM-DD hh:mm:ss) UTC,Instrument flags,Ambient pressure (hPa),Sample flow (lpm),Bypass flow (lpm),Sample temperature (°C),Ambient temperature (°C),ASC tube jacket temperature (°C),LED temperature (°C),Box temperature (°C),Sample RH (%),Span deviation,Mass concentration (μg/m³),Mass concentration (μg/m³),Mass concentration (μg/m³)
DateTimeUTC,F1_M11,P_M11,Q1_M11,Q2_M11,T1_M11,T2_M11,T3_M11,T4_M11,T5_M11,U1_M11,ZSPAN_M11,X0_M11,X2_M11,X1_M11
2022-03-28 22:00:00,,0816.0,5.01,0.00,30.0,28.0,00.0,39.0,31.7,04.2,0000.0,0003.32,0001.34,0000.81
2022-03-28 22:01:00,,0815.9,4.98,0.00,30.0,28.3,00.0,39.0,31.7,04.5,0000.0,0003.27,0001.35,0000.81
2022-03-28 22:02:00,,0815.9,5.02,0.00,30.0,28.5,00.0,39.0,31.7,04.2,0000.0,0003.12,0001.34,0000.81
2022-03-28 22:03:00,,0815.8,4.99,0.00,30.0,28.7,00.0,39.0,31.8,04.3,0000.0,0004.54,0001.40,0000.83
2022-03-28 22:04:00,,0815.8,5.00,0.00,30.1,28.9,00.0,39.0,31.8,04.4,0000.0,0004.58,0001.41,0000.83
2022-03-28 22:05:00,,0815.8,5.00,0.00,30.1,29.0,00.0,39.0,31.9,04.6,0000.0,0005.04,0001.43,0000.83
2022-03-28 22:06:00,,0815.8,4.99,0.00,30.1,29.1,00.0,39.0,31.9,04.6,0000.0,0005.37,0001.42,0000.83
2022-03-28 22:07:00,,0815.8,5.01,0.00,30.2,29.2,00.0,39.0,31.9,04.3,0000.0,0005.02,0001.42,0000.83
2022-03-28 22:08:00,,0815.8,4.99,0.00,30.2,29.2,00.0,39.0,32.0,04.2,0000.0,0004.69,0001.43,0000.83
2022-03-28 22:09:00,,0815.8,5.02,0.00,30.2,29.3,00.0,39.1,32.0,04.2,0000.0,0004.49,0001.40,0000.83
2022-03-28 22:10:00,,0815.8,5.00,0.00,30.3,29.4,00.0,39.1,32.0,04.6,0000.0,0004.54,0001.38,0000.84
2022-03-28 22:11:00,,0815.7,4.99,0.00,30.3,29.4,00.0,39.1,32.1,04.8,0000.0,0004.55,0001.36,0000.83
2022-03-28 22:12:00,,0815.7,5.02,0.00,30.3,29.5,00.0,39.1,32.1,04.5,0000.0,0005.42,0001.36,0000.83
2022-03-28 22:13:00,,0815.7,4.99,0.00,30.4,29.6,00.0,39.1,32.1,04.5,0000.0,0007.91,0001.51,0000.84
2022-03-28 22:14:00,,0815.7,5.01,0.00,30.4,29.5,00.0,39.2,32.1,04.4,0000.0,0007.74,0001.52,0000.83
2022-03-28 22:15:00,,0815.6,4.99,0.00,30.3,27.9,00.0,39.2,31.9,04.3,0000.0,0007.52,0001.53,0000.83
2022-03-28 22:16:00,,0815.8,5.01,0.00,30.2,25.8,00.0,39.1,31.4,04.4,0000.0,0007.35,0001.55,0000.83
2022-03-28 22:17:00,,0815.7,5.01,0.00,30.1,25.7,00.0,39.1,31.3,04.5,0000.0,0007.00,0001.55,0000.82
2022-03-28 22:18:00,,0815.8,5.00,0.00,30.0,26.1,00.0,39.1,31.4,04.6,0000.0,0007.05,0001.57,0000.83
2022-03-28 22:19:00,,0815.8,5.01,0.00,29.9,26.6,00.0,39.0,31.4,04.8,0000.0,0007.07,0001.59,0000.84
2022-03-28 22:20:00,,0815.8,4.99,0.00,29.9,27.1,00.0,39.0,31.5,05.0,0000.0,0007.99,0001.66,0000.85
2022-03-28 22:21:00,,0815.8,5.01,0.00,29.9,27.5,00.0,38.9,31.6,04.9,0000.0,0008.18,0001.76,0000.89
2022-03-28 22:22:00,,0815.7,5.01,0.00,29.9,27.8,00.0,38.9,31.6,04.6,0000.0,0008.26,0001.83,0000.94
2022-03-28 22:23:00,,0815.7,4.99,0.00,29.9,28.1,00.0,38.9,31.7,04.7,0000.0,0007.56,0001.82,0000.96
2022-03-28 22:24:00,,0815.8,5.01,0.00,30.0,28.3,00.0,38.9,31.7,05.1,0000.0,0006.05,0001.73,0000.97
2022-03-28 22:25:00,,0815.7,5.00,0.00,30.0,28.5,00.0,38.9,31.7,05.0,0000.0,0005.76,0001.79,0001.01
2022-03-28 22:26:00,,0815.7,5.00,0.00,30.0,28.6,00.0,38.9,31.7,04.6,0000.0,0006.99,0001.82,0001.03
2022-03-28 22:27:00,,0815.7,5.00,0.00,30.0,28.7,00.0,38.9,31.8,04.5,0000.0,0006.95,0001.81,0001.04
2022-03-28 22:28:00,,0815.7,5.01,0.00,30.0,28.8,00.0,38.9,31.8,04.8,0000.0,0007.09,0001.90,0001.09
2022-03-28 22:29:00,,0815.6,4.99,0.00,30.0,28.9,00.0,38.9,31.8,04.9,0000.0,0007.23,0001.96,0001.16
2022-03-28 22:30:00,,0815.6,5.02,0.00,30.1,29.0,00.0,38.9,31.8,05.1,0000.0,0007.63,0002.07,0001.22
2022-03-28 22:31:00,,0816.0,4.99,0.00,30.1,29.1,00.0,39.0,31.8,05.0,0000.0,0007.05,0002.14,0001.27
2022-03-28 22:32:00,,0815.8,4.99,0.00,30.1,29.1,00.0,39.0,31.9,05.4,0000.0,0007.83,0002.16,0001.31
2022-03-28 22:33:00,,0815.6,5.02,0.00,30.1,29.2,00.0,39.0,32.0,05.2,0000.0,0007.84,0002.16,0001.34
2022-03-28 22:34:00,,0815.6,4.99,0.00,30.1,29.2,00.0,39.0,31.9,05.0,0000.0,0008.09,0002.23,0001.39
2022-03-28 22:35:00,,0815.9,5.01,0.00,30.2,29.1,00.0,39.0,31.9,05.0,0000.0,0008.11,0002.33,0001.43
2022-03-28 22:36:00,,0815.7,5.01,0.00,30.1,27.2,00.0,39.0,31.5,05.1,0000.0,0008.22,0002.36,0001.45
2022-03-28 22:37:00,,0816.0,5.01,0.00,29.9,25.5,00.0,39.0,31.1,05.5,0000.0,0007.94,0002.46,0001.50
2022-03-28 22:38:00,,0816.0,4.99,0.00,29.8,25.6,00.0,38.9,31.1,05.5,0000.0,0007.94,0002.58,0001.58
2022-03-28 22:39:00,,0816.1,5.00,0.00,29.7,26.0,00.0,38.9,31.2,05.4,0000.0,0008.41,0002.68,0001.64
2022-03-28 22:40:00,,0816.0,5.00,0.00,29.7,26.6,00.0,38.8,31.3,05.4,0000.0,0008.91,0002.77,0001.66
2022-03-28 22:41:00,,0815.6,5.01,0.00,29.7,27.0,00.0,38.8,31.3,05.3,0000.0,0008.78,0002.83,0001.68
2022-03-28 22:42:00,,0816.0,5.00,0.00,29.7,27.3,00.0,38.8,31.4,05.6,0000.0,0009.21,0002.98,0001.68
2022-03-28 22:43:00,,0815.8,4.99,0.00,29.7,27.7,00.0,38.8,31.4,05.6,0000.0,0008.48,0003.02,0001.68
2022-03-28 22:44:00,,0815.8,5.01,0.00,29.7,27.9,00.0,38.7,31.4,05.4,0000.0,0008.51,0003.05,0001.71
2022-03-28 22:45:00,,0815.6,5.00,0.00,29.7,28.1,00.0,38.7,31.4,05.4,0000.0,0008.42,0003.13,0001.78
2022-03-28 22:46:00,,0815.6,4.99,0.00,29.7,28.2,00.0,38.7,31.5,05.4,0000.0,0008.64,0003.17,0001.83
2022-03-28 22:47:00,,0815.6,5.01,0.00,29.8,28.4,00.0,38.7,31.5,05.4,0000.0,0008.91,0003.22,0001.88
2022-03-28 22:48:00,,0815.7,4.99,0.00,29.8,28.5,00.0,38.7,31.5,05.4,0000.0,0008.99,0003.27,0001.89
2022-03-28 22:49:00,,0815.6,5.00,0.00,29.8,28.6,00.0,38.7,31.6,05.4,0000.0,0010.24,0003.30,0001.94
2022-03-28 22:50:00,,0815.7,5.01,0.00,29.8,28.7,00.0,38.7,31.6,05.2,0000.0,0009.97,0003.33,0002.01
2022-03-28 22:51:00,,0815.6,4.99,0.00,29.8,28.8,00.0,38.7,31.6,05.3,0000.0,0009.70,0003.38,0002.12
2022-03-28 22:52:00,,0815.6,5.01,0.00,29.8,28.8,00.0,38.8,31.6,05.2,0000.0,0010.38,0003.43,0002.20
2022-03-28 22:53:00,,0815.6,4.99,0.00,29.9,28.9,00.0,38.8,31.6,05.2,0000.0,0010.57,0003.41,0002.31
2022-03-28 22:54:00,,0815.9,5.02,0.00,29.9,28.9,00.0,38.8,31.7,05.1,0000.0,0010.99,0003.45,0002.42
2022-03-28 22:55:00,,0815.6,5.00,0.00,29.9,29.0,00.0,38.8,31.7,05.3,0000.0,0011.24,0003.52,0002.49
2022-03-28 22:56:00,,0815.6,4.99,0.00,29.9,29.0,00.0,38.8,31.7,05.4,0000.0,0011.48,0003.54,0002.49
2022-03-28 22:57:00,,0815.6,5.01,0.00,29.9,29.1,00.0,38.8,31.7,05.4,0000.0,0011.40,0003.53,0002.51
2022-03-28 22:58:00,,0815.7,4.99,0.00,30.0,29.1,00.0,38.8,31.8,05.2,0000.0,0011.24,0003.51,0002.54
2022-03-28 22:59:00,,0815.7,5.01,0.00,30.0,29.2,00.0,38.8,31.8,05.4,0000.0,0011.89,0003.50,0002.57
